Home   Weather   Stornoway   Past weeks

Flag for United Kingdom Past Weather in Stornoway, Scotland, United Kingdom — Yesterday and Last 2 Weeks

Now
55 °F

Light rain. Broken clouds.


Feels Like: 49 °F
Forecast: 49 / 55 °F
Wind: 30 mph from Southwest

Location: Stornoway

Current Time: Dec 9, 2016 at 1:33:36 pm

Latest Report: Dec 9, 2016 at 12:50 pm


Visibility: N/A

Pressure: 29.71 "Hg

Humidity: 82%

Dew Point: 50 °F

Location of StornowayLocation

Past Weather in Stornoway — Graph

°F

Stornoway Temperature Yesterday

Maximum temperature yesterday: 54 °F (at 5:20 am)
Minimum temperature yesterday: 50 °F (at 2:50 pm)
Average temperature yesterday: 51 °F

High & Low Weather Summary for the Past Weeks

 TemperatureHumidityPressure
High57 °F (Dec 7, 11:20 am)100% (Nov 25, 9:50 pm)30.45 "Hg (Nov 25, 9:50 pm)
Low27 °F (Dec 5, 4:50 am)71% (Nov 27, 11:20 am)29.50 "Hg (Dec 7, 2:50 pm)
Average45 °F89%30.21 "Hg
* Reported Nov 24 12:20 pm — Dec 9 12:20 pm, Stornoway, Weather by CustomWeather, © 2016

Note: Actual official high and low records may vary slightly from our data, if they occured in-between our weather recording intervals... More about our weather records

Advertising

Stornoway Weather History for the Previous 24 Hours

Scroll right to see more
 ConditionsComfort  
Time TempWeatherWind HumidityBarometerVisibility
12:20 pm
Fri, Dec 9
55 °FScattered showers. Broken clouds.29 mph82%29.71 "HgN/A
11:50 am55 °FScattered showers. Partly sunny.33 mph82%29.71 "HgN/A
11:20 am55 °FScattered clouds.28 mph82%29.71 "HgN/A
10:50 am55 °FScattered clouds.28 mph88%29.71 "HgN/A
10:20 am54 °FPartly sunny.20 mph94%29.74 "HgN/A
9:50 am54 °FPartly sunny.20 mph94%29.74 "HgN/A
9:20 am54 °FBroken clouds.21 mph94%29.74 "HgN/A
8:50 am55 °FPartly cloudy.21 mph88%29.74 "HgN/A
8:20 am54 °FPartly cloudy.21 mph94%29.74 "HgN/A
7:50 am54 °FLight rain. Partly cloudy.20 mph94%29.74 "HgN/A
7:20 am54 °FPartly cloudy.20 mph94%29.74 "Hg5 mi
6:50 am52 °FPartly cloudy.18 mph100%29.74 "Hg4 mi
6:20 am52 °FRain. Partly cloudy.14 mph94%29.77 "Hg5 mi
5:50 am50 °FRain. Passing clouds.15 mph100%29.77 "Hg3 mi
5:20 am50 °FRain. Passing clouds.21 mph94%29.80 "Hg3 mi
4:20 am50 °FPassing clouds.12 mph88%29.80 "HgN/A
3:50 am50 °FCool.16 mph82%29.83 "HgN/A
3:20 am50 °FPassing clouds.7 mph82%29.86 "HgN/A
2:50 am50 °FPassing clouds.17 mph88%29.89 "HgN/A
2:20 am50 °FPassing clouds.28 mph88%29.89 "HgN/A
1:50 am50 °FPassing clouds.17 mph88%29.89 "HgN/A
1:20 am52 °FPassing clouds.16 mph82%29.95 "HgN/A
12:50 am52 °FOvercast.20 mph82%29.95 "HgN/A
12:20 am50 °FPassing clouds.15 mph88%29.95 "HgN/A
11:50 pm
Thu, Dec 8
50 °FOvercast.15 mph88%29.98 "HgN/A
11:20 pm50 °FOvercast.14 mph88%29.98 "HgN/A
10:50 pm50 °FPassing clouds.15 mph88%29.98 "HgN/A
10:20 pm50 °FOvercast.17 mph88%29.98 "HgN/A
9:50 pm50 °FPassing clouds.10 mph94%29.98 "Hg6 mi
9:20 pm50 °FPassing clouds.14 mph88%29.98 "HgN/A
8:50 pm50 °FPassing clouds.13 mph94%30.01 "Hg6 mi
8:20 pm52 °FPassing clouds.14 mph88%29.98 "Hg6 mi
7:50 pm50 °FPassing clouds.13 mph88%29.98 "HgN/A
7:20 pm50 °FPassing clouds.13 mph88%30.01 "HgN/A
6:50 pm50 °FPassing clouds.13 mph88%30.01 "HgN/A
6:20 pm50 °FPassing clouds.16 mph88%29.98 "HgN/A
5:50 pm50 °FPassing clouds.15 mph88%29.98 "HgN/A
5:20 pm50 °FPassing clouds.14 mph88%29.98 "HgN/A
4:50 pm50 °FPassing clouds.14 mph88%29.98 "HgN/A
4:20 pm50 °FPassing clouds.14 mph88%29.98 "HgN/A
3:50 pm50 °FPassing clouds.12 mph88%29.95 "HgN/A
3:20 pm50 °FScattered clouds.12 mph88%29.95 "HgN/A
2:50 pm50 °FScattered clouds.13 mph88%29.95 "HgN/A
2:20 pm52 °FPassing clouds.12 mph82%29.95 "HgN/A
1:50 pm52 °FScattered clouds.10 mph82%29.95 "HgN/A
1:20 pm52 °FScattered clouds.10 mph88%29.95 "HgN/A
Weather by CustomWeather, © 2016

See weather overviewHow to use our weather pages